Flag for U.S.A. Weather past 2 weeks in Fairbanks, Alaska, U.S.A.

Now
23 °F

Mostly cloudy.


Feels Like: 23 °F
Forecast: 13 / 27 °F
Wind: No wind

Location: Wainwright U. S. Army Airfield

Current Time: Oct 23, 2014 at 11:35:58 PM

Latest Report: Oct 23, 2014 at 10:56 PM


Visibility: 10 mi

Pressure: 29.84 "Hg

Humidity: 85%

Dew point: 19 °F

Location of FairbanksLocation

Historic Weather in Fairbanks — Graph

°F

Fairbanks temperature yesterday

Maximum temperature yesterday: 30 °F (at 2:55 PM)
Minimum temperature yesterday: 12 °F (at 8:55 AM)
Average temperature yesterday: 21 °F

Past Weeks' High & Low Weather Summary

 TemperatureHumidityPressure
High38 °F (Oct 11, 3:56 PM)93% (Oct 13, 4:56 AM)29.98 "Hg (Oct 13, 4:56 AM)
Low12 °F (Oct 23, 2:56 AM)51% (Oct 9, 3:55 PM)29.10 "Hg (Oct 10, 4:56 AM)
Average27 °F75%29.52 "Hg
* Reported Oct 8 9:56 PM — Oct 23 9:56 PM, Fairbanks, Weather by CustomWeather, © 2014

Note: Actual official high and low records may vary slightly from our data, if they occured in-between our weather recording intervals... More about our weather records

Advertising

Fairbanks weather history for previous 24 hours

 ConditionsComfort  
Time TempWeatherWind HumidityBarometerVisibility
9:56 PM
Oct 23
23 °FMostly cloudy.No wind85%29.84 "Hg10 mi
8:55 PM23 °FScattered showers. Overcast.No wind80%29.84 "Hg7 mi
7:55 PM23 °FScattered showers. Mostly cloudy.No wind80%29.85 "Hg7 mi
6:55 PM23 °FScattered showers. Mostly cloudy.3 mph80%29.85 "Hg7 mi
5:55 PM25 °FScattered showers. Cloudy.No wind74%29.85 "Hg25 mi
4:55 PM25 °FScattered showers. Cloudy.No wind80%29.85 "Hg25 mi
3:55 PM25 °FSnow flurries. Broken clouds.3 mph80%29.86 "Hg25 mi
2:55 PM23 °FBroken clouds.3 mph80%29.87 "Hg25 mi
1:55 PM23 °FPartly sunny.No wind80%29.87 "Hg25 mi
12:55 PM23 °FMostly cloudy.1 mph80%29.87 "Hg25 mi
11:55 AM21 °FSnow flurries. Partly sunny.No wind80%29.86 "Hg25 mi
10:55 AM19 °FSnow flurries. Partly sunny.2 mph86%29.85 "Hg25 mi
9:55 AM19 °FSnow flurries. Passing clouds.2 mph86%29.85 "Hg25 mi
8:55 AM18 °FMostly cloudy.No wind79%29.85 "Hg25 mi
7:55 AM18 °FPartly cloudy.3 mph79%29.84 "Hg10 mi
6:55 AM16 °FLight snow. Partly cloudy.2 mph79%29.84 "Hg10 mi
5:56 AM16 °FOvercast.No wind84%29.82 "Hg10 mi
4:56 AM16 °FOvercast.No wind80%29.80 "Hg10 mi
3:56 AM12 °FPassing clouds.No wind84%29.80 "Hg10 mi
2:56 AM12 °FClear.No wind84%29.78 "Hg10 mi
1:56 AM13 °FClear.No wind84%29.78 "Hg10 mi
12:56 AM15 °FClear.No wind91%29.76 "Hg10 mi
11:56 PM
Oct 22
18 °FPassing clouds.3 mph84%29.75 "Hg10 mi
Weather by CustomWeather, © 2014

See weather overviewHow to use our weather pages